Regional Weather Roundup
Issued by NWS

Home | Current Version | Previous Version | Graphics & Text | Print | Product List | Glossary On
Versions: 1 2 3 4 5 6 7 8 9 10 11 12 13 14 15 16 17 18 19 20 21 22 23 24 25 26 27 28 29 30 31 32 33 34 35 36 37 38 39 40 41 42 43 44 45 46 47 48 49 50
000
ASUS43 KTOP 292008
RWRKS

WEATHER ROUNDUP FOR KANSAS
NATIONAL WEATHER SERVICE GOODLAND KS
300 PM CDT SUN MAY 29 2016

NOTE:  "FAIR" INDICATES FEW OR NO CLOUDS BELOW 12,000 FEET WITH NO
SIGNIFICANT WEATHER AND/OR OBSTRUCTIONS TO VISIBILITY.

KSZ001>006-013>018-027>032-041>047-292100-
NORTHWEST KANSAS

CITY           SKY/WX    TMP DP  RH WIND       PRES   REMARKS
GOODLAND       MOSUNNY   81  55  40 S13       30.05F
HAYS           CLOUDY    82  61  47 S16       30.06S
HILL CITY      MOSUNNY   83  56  39 S12       30.05F
RUSSELL        CLOUDY    83  63  50 S13       30.04F
$$

KSZ061>065-074>080-084>089-292100-
SOUTHWEST KANSAS

CITY           SKY/WX    TMP DP  RH WIND       PRES   REMARKS
DODGE CITY     MOSUNNY   79  51  37 S24G33    30.06F
ELKHART          N/A     72  46  39 E9          N/A
GARDEN CITY    SUNNY     82  53  36 S20G26    30.06F
GREAT BEND     CLOUDY    82  63  51 SW15      30.05F
LIBERAL        PTSUNNY   75  55  50 SE6       30.09F
PRATT          CLOUDY    80  53  39 SW15      30.07F
$$

KSZ066>073-081>083-090>101-292100-
SOUTHEAST KANSAS

CITY           SKY/WX    TMP DP  RH WIND       PRES   REMARKS
CHANUTE        PTSUNNY   82  65  56 SW5       30.08F
COFFEYVILLE    CLOUDY    84  67  56 CALM      30.07F
HUTCHINSON     CLOUDY    84  59  42 S7        30.08F
MEDICINE LODGE   N/A     82  56  40 NW6       30.06F
NEWTON         CLOUDY    81  66  61 S9          N/A
PARSONS        CLOUDY    84  65  52 CALM      30.09F
WICHITA INTL   CLOUDY    85  61  44 VRB5      30.06F
WICHITA JABRA  CLOUDY    82  62  50 NE5       30.07F
WINFIELD       MOSUNNY   83  68  60 W10       30.09S
$$

KSZ007>012-019>026-033>040-048>060-102>105-292100-
NORTHEAST KANSAS

CITY           SKY/WX    TMP DP  RH WIND       PRES   REMARKS
CONCORDIA      SUNNY     84  62  47 S8        30.06F
EMPORIA        PTSUNNY   82  62  50 S6        30.08F
LAWRENCE       SUNNY     85  54  34 MISG      30.09F
MANHATTAN      CLOUDY    87  61  41 VRB5      30.05F
MARYSVILLE     SUNNY     84  61  45 W7        30.07F
OLATHE IND     CLOUDY    84  55  36 MISG      30.11F
OLATHE EXE     CLOUDY    83  57  41 VRB5      30.11S
SALINA         CLOUDY    86  57  37 SE6       30.05F
TOPEKA BILLARD   N/A     87  56  34 SW6       30.08F
TOPEKA FORBES  CLOUDY    87  57  35 VRB7      30.09F
$$




USA.gov is the U.S. government's official web portal to all federal, state and local government web resources and services.